Regional Weather Roundup
Issued by NWS

Home | Current Version | Previous Version | Text Only | Print | Product List | Glossary Off
Versions: 1 2 3 4 5 6 7 8 9 10 11 12 13 14 15 16 17 18 19 20 21 22 23 24 25 26 27 28 29 30 31 32 33 34 35 36 37 38 39 40 41 42 43 44 45 46 47 48 49 50

000
ASUS43 KMKX 210900
RWRWI

WISCONSIN REGIONAL WEATHER ROUNDUP
NATIONAL WEATHER SERVICE MILWAUKEE/SULLIVAN WI
400 AM CDT THU AUG 21 2014

NOTE: "FAIR" INDICATES FEW OR NO CLOUDS BELOW 12,000 FEET WITH NO
SIGNIFICANT WEATHER AND/OR OBSTRUCTIONS TO VISIBILITY.

WIZ001-002-006>008-014>016-023>028-211000-
NORTHWEST WISCONSIN

CITY           SKY/WX    TMP DP  RH WIND       PRES   REMARKS
SUPERIOR ARPT  CLOUDY    61  60  99 NE10      29.90F FOG
ASHLAND        FOG       59  59 100 E3        29.93F VSB<1/4
HAYWARD        CLEAR     62  60  93 CALM      29.91F
SIREN          CLOUDY    65  61  88 SE7       29.86F
RICE LAKE      PTCLDY    64  60  89 E7        29.89F
LADYSMITH      MOCLDY    62  60  93 E6        29.93F
EAU CLAIRE     NOT AVBL
MENOMONIE      CLOUDY    66  63  91 E3        29.88R
NEW RICHMOND   CLOUDY    67  62  84 E7        29.84F
OSCEOLA        CLOUDY    67  63  86 E12       29.85F
$$

WIZ003>005-009-010-017-018-211000-
NORTH CENTRAL WISCONSIN

CITY           SKY/WX    TMP DP  RH WIND       PRES   REMARKS
WOODRUFF         N/A     57  54  88 CALM      29.97R FOG
RHINELANDER    CLOUDY    60  59  96 SE5       29.98R
EAGLE RIVER    CLOUDY    61  61  98 CALM      29.97S
LAND O LAKES   MOCLDY    61  60  97 CALM      29.98S
PHILLIPS       CLOUDY    55  55  99 E3        29.94S
TOMAHAWK       PTCLDY    49  49  97 CALM      29.97R
MEDFORD        PTCLDY    60  59  97 E3        29.94F
MERRILL        MOCLDY    56  56 100 CALM      29.96R FOG
$$

WIZ029-030-035-036-043>047-211000-
CENTRAL WISCONSIN

CITY           SKY/WX    TMP DP  RH WIND       PRES   REMARKS
WAUSAU         PTCLDY    60  59  96 E7        29.93F
MOSINEE        PTCLDY    59  59 100 E3        29.95F FOG
MARSHFIELD     CLEAR     63  61  93 E5        29.92F
STEVENS POINT  PTCLDY    58  58  97 CALM      29.95S
WAUPACA        PTCLDY    62  61  95 CALM      29.95R FOG
WAUTOMA        NOT AVBL
WISC RAPIDS    CLEAR     63  62  97 E3        29.93F
CAMP DOUGLAS   MOCLDY    64  64 100 E6        29.91F FOG
$$

WIZ011>013-019>022-031-037>040-048>050-211000-
NORTHEAST WISCONSIN

CITY           SKY/WX    TMP DP  RH WIND       PRES   REMARKS
ANTIGO         FOG       61  61 100 E5        29.97S VSB 1/2
STURGEON BAY   MOCLDY    63  59  88 SE3       29.96F
GREEN BAY      PTCLDY    60  59  96 CALM      29.95S FOG
MANITOWOC      CLOUDY    63  63 100 CALM      29.96F FOG
APPLETON       PTCLDY    64  63  94 E3        29.95S
CLINTONVILLE   MOCLDY    59  57  94 CALM      29.94F FOG
OSHKOSH        PTCLDY    63  61  93 CALM      29.94S
$$

WIZ032>034-041-042-053>061-211000-
SOUTHWEST WISCONSIN

CITY           SKY/WX    TMP DP  RH WIND       PRES   REMARKS
LA CROSSE      CLOUDY    72  67  84 SE6       29.86F
SPARTA         MOCLDY    67  64  90 SE3       29.90F
VIROQUA        PTSUNNY   67  67 100 SE5       29.91F
BOSCOBEL       HVY RAIN  68  65  90 SW7       29.90F VSB 1
PRAIRIE DU CHI MOCLDY    70  66  86 E5        29.87F
PLATTEVILLE    CLOUDY    70  67  91 E12       29.92F
$$

WIZ056-057-062-063-064-067-068-211000-
SOUTH CENTRAL WISCONSIN

CITY           SKY/WX    TMP DP  RH WIND       PRES   REMARKS
BARABOO/DELLS  MOCLDY    65  63  91 CALM      29.92S FOG
LONE ROCK      TSTM      73  68  84 NW5       29.92R
WATERTOWN      CLOUDY    66  65  96 E5        29.92F
MADISON        MOCLDY    70  67  90 S6        29.92S
MIDDLETON      CLOUDY    68  68 100 CALM      29.93S
MONROE         RAIN      68  66  94 E3        29.93S
JANESVILLE     RAIN      70  66  88 S3        29.93F
$$

WIZ051-052-058>065-066-070>072-211000-
SOUTHEAST WISCONSIN

CITY           SKY/WX    TMP DP  RH WIND       PRES   REMARKS
MILWAUKEE      MOCLDY    66  62  87 CALM      29.94S
WAUKESHA       PTCLDY    63  61  94 CALM      29.95F
MILWAUKEE/TIMM MOCLDY    64  61  88 CALM      29.95S
RACINE         PTCLDY    66  63  90 CALM      29.95F
BURLINGTON     PTCLDY    61  61  99 SW3       29.94S FOG
KENOSHA        PTCLDY    67  65  93 S5        29.95S
FOND DU LAC    PTCLDY    63  60  90 SE5       29.94F
SHEBOYGAN      FOG       61  60  97 CALM      29.95F VSB 1/4
WEST BEND      PTCLDY    61  57  88 CALM      29.94F
JUNEAU         PTCLDY    65  38  37 E6        29.95S
$$

LSZ147-162-211000-
LAKE SUPERIOR

STATION/POSITION TIME  TEMP    WIND        PRES    WAVE
                       AIR SEA DIR/SP/G            HT/PER
                 (UTC) (F)     (DEG/KT/KT) (MB)    (FT/S)
W MID LAKE BUOY  0750   56 58  100/  6/  6 1014.4F   0
DEVILS ISLAND    0800   60     110/  7/  8 1013.5F
PORT WING        0800   58     140/  2/  3 1013.2
SAXON HARBOR     0820   56        CALM     1013.5F
$$

LMZ867-665-643>646-211000-
LAKE MICHIGAN

STATION/POSITION TIME  TEMP    WIND        PRES    WAVE
                       AIR SEA DIR/SP/G            HT/PER
                 (UTC) (F)     (DEG/KT/KT) (MB)    (FT/S)
N MID LAKE BUOY  0750   63 62  230/  8/  8 1014.5R   0
NORTHPORT PIER   0800   65     190/  1/  5 1014.9R
SISTER BAY       0811   65        CALM       N/A
ALGOMA LAKESHORE 0723             CALM       N/A
KEWAUNEE LAKESHO 0800   61      CALM  /  2 1013.9S
SHEBOYGAN LAKESH 0800   66 67   50/  2/  2 1014.5F
ATWATER BUOY     0800   68      80/  4/  4 1015.0F
MILWAUKEE LAKESH 0800   68      70/  4/  5   N/A
S MID LAKE BUOY  0750   68 68   60/  6/  8 1013.9F   0
KENOSHA   LAKESH 0800   70     120/  4/  5 1013.5F
$$

TC  - TEMPERATURE IN CELSIUS
VSB - VISIBILITY IN STATUTE MILES
WCI - WIND CHILL INDEX
HX  - HEAT INDEX



USA.gov is the U.S. government's official web portal to all federal, state and local government web resources and services.